M I D A S
Marine Information and Data Acquisition System
Tripno 987 of the Zeeleeuw from 2005-11-24 10:02:20 to 2005-11-24 11:46:52
Back to CruiseResearch ActivitiesStationsMapUnderway DataData graphs

EquipmentUnitsComments
TimeDGPSUTC
LatitudeDGPSDM.mWGS84
LongitudeDGPSDM.mWGS84
SpeedMeteo Stationm/sRelative wind speed
DirectionMeteo StationdegRelative wind direction
TemperatureMeteo Stationdeg CelciusAir temperature
PressureMeteo StationPaAtmospheric pressure
HumidityMeteo Station%Relative humidity
Missing or incorrect values are displayed as -999
Metereological data collected by the RV Zeeleeuw from 2005-11-24 06:05:56 to 2005-11-24 12:00:24
Time Latitude Longitude Speed Direction Temperature Pressure Humidity
2005-11-24 06:07 51°13.598 2°56.094 -999 86 4.9 102230 99
2005-11-24 06:08 51°13.599 2°56.094 -999 85 4.9 102230 99
2005-11-24 06:09 51°13.598 2°56.095 -999 119 4.9 102230 99
2005-11-24 06:10 51°13.598 2°56.094 -999 88 4.9 102220 99
2005-11-24 06:11 51°13.599 2°56.095 -999 97 4.9 102220 99
2005-11-24 06:12 51°13.598 2°56.095 -999 134 4.9 102210 99
2005-11-24 06:13 51°13.602 2°56.064 -999 136 4.9 102210 99
2005-11-24 06:14 51°13.596 2°56.08 -999 75 4.9 102210 99
2005-11-24 06:15 51°13.56 2°56.165 -999 37 4.9 102210 99
2005-11-24 06:16 51°13.534 2°56.214 -999 70 4.9 102200 99
2005-11-24 06:17 51°13.542 2°56.214 -999 23 4.9 102200 99
2005-11-24 06:18 51°13.535 2°56.212 -999 341 4.9 102200 99
2005-11-24 06:19 51°13.538 2°56.202 -999 323 4.9 102200 99
2005-11-24 06:20 51°13.554 2°56.15 -999 312 5 102210 99
2005-11-24 06:21 51°13.564 2°56.123 -999 308 5 102200 99
2005-11-24 06:22 51°13.574 2°56.094 -999 303 5 102200 99
2005-11-24 06:23 51°13.589 2°56.06 -999 277 5 102200 99
2005-11-24 06:24 51°13.601 2°56.034 -999 281 5 102190 99
2005-11-24 06:25 51°13.608 2°56.024 -999 288 5 102190 99
2005-11-24 06:26 51°13.622 2°56 -999 304 5 102180 99
2005-11-24 06:27 51°13.642 2°55.953 -999 310 5 102180 99
2005-11-24 06:28 51°13.677 2°55.857 -999 314 5 102180 99
2005-11-24 06:29 51°13.739 2°55.738 -999 307 5.1 102180 99
2005-11-24 06:30 51°13.815 2°55.642 -999 346 5.1 102180 99
2005-11-24 06:31 51°13.91 2°55.57 -999 302 5.1 102180 99
2005-11-24 06:32 51°14.016 2°55.501 -999 317 5.1 102180 99
2005-11-24 06:33 51°14.135 2°55.42 -999 334 5.2 102180 99
2005-11-24 06:34 51°14.245 2°55.296 -999 333 5.2 102180 99
2005-11-24 06:35 51°14.342 2°55.101 -999 333 5.3 102180 99
2005-11-24 06:36 51°14.456 2°54.893 -999 327 5.4 102170 99
2005-11-24 06:37 51°14.576 2°54.642 -999 332 5.5 102120 99
2005-11-24 06:38 51°14.688 2°54.364 -999 332 5.6 102110 99
2005-11-24 06:39 51°14.791 2°54.079 -999 331 5.7 102100 99
2005-11-24 06:40 51°14.891 2°53.787 -999 330 5.7 102090 99
2005-11-24 06:41 51°14.99 2°53.493 -999 326 5.8 102090 99
2005-11-24 06:42 51°15.08 2°53.193 -999 330 5.9 102080 99
2005-11-24 06:43 51°15.169 2°52.894 -999 325 6.1 102080 99
2005-11-24 06:44 51°15.248 2°52.589 -999 325 6.3 102070 99
2005-11-24 06:45 51°15.327 2°52.284 -999 330 6.4 102060 99
2005-11-24 06:46 51°15.408 2°51.98 -999 329 6.6 102050 100
2005-11-24 06:47 51°15.488 2°51.676 -999 330 6.6 102050 100
2005-11-24 06:48 51°15.544 2°51.362 -999 334 6.7 102050 100
2005-11-24 06:49 51°15.587 2°51.045 -999 335 6.8 102060 100
2005-11-24 06:50 51°15.597 2°50.724 -999 343 6.9 102050 100
2005-11-24 06:51 51°15.591 2°50.403 -999 345 7 102060 100
2005-11-24 06:52 51°15.577 2°50.083 -999 354 7.1 102050 100
2005-11-24 06:53 51°15.564 2°49.763 -999 -999 7.2 102050 100
2005-11-24 06:54 51°15.552 2°49.445 -999 3 7.4 102050 100
2005-11-24 06:55 51°15.54 2°49.126 -999 3 7.6 102080 100
2005-11-24 06:56 51°15.529 2°48.807 -999 6 7.7 102050 99
2005-11-24 06:57 51°15.519 2°48.488 -999 359 7.6 102040 99
2005-11-24 06:58 51°15.507 2°48.168 -999 357 7.7 102030 99
2005-11-24 06:59 51°15.496 2°47.846 -999 360 7.7 102030 99
2005-11-24 07:00 51°15.486 2°47.526 -999 2 7.6 102020 99
2005-11-24 07:01 51°15.477 2°47.207 -999 -999 7.6 102070 99
2005-11-24 07:02 51°15.465 2°46.89 -999 1 7.7 102020 99
2005-11-24 07:03 51°15.447 2°46.577 -999 360 7.7 102010 98
2005-11-24 07:04 51°15.427 2°46.263 -999 359 7.7 102020 98
2005-11-24 07:05 51°15.406 2°45.949 -999 2 7.7 102020 98
2005-11-24 07:06 51°15.385 2°45.636 -999 356 7.7 102020 98
2005-11-24 07:07 51°15.367 2°45.322 -999 356 7.7 102020 98
2005-11-24 07:08 51°15.349 2°45.006 -999 2 7.7 102030 98
2005-11-24 07:09 51°15.331 2°44.689 -999 353 7.7 102030 98
2005-11-24 07:10 51°15.324 2°44.37 -999 355 7.8 102020 97
2005-11-24 07:11 51°15.321 2°44.05 -999 354 7.9 102020 97
2005-11-24 07:12 51°15.318 2°43.731 -999 353 7.9 102020 97
2005-11-24 07:13 51°15.316 2°43.411 -999 355 7.9 102040 97
2005-11-24 07:14 51°15.314 2°43.092 -999 355 7.8 102030 96
2005-11-24 07:15 51°15.326 2°42.772 -999 349 7.8 102020 96
2005-11-24 07:16 51°15.341 2°42.453 -999 353 7.9 102020 96
2005-11-24 07:17 51°15.357 2°42.132 -999 349 7.9 102010 96
2005-11-24 07:18 51°15.373 2°41.81 -999 349 8 102010 96
2005-11-24 07:19 51°15.389 2°41.486 -999 347 8 102020 96
2005-11-24 07:20 51°15.405 2°41.18 -999 347 8 102030 95
2005-11-24 07:21 51°15.438 2°41.042 -999 322 8 102040 95
2005-11-24 07:22 51°15.47 2°41.014 -999 291 8.1 102040 95
2005-11-24 07:23 51°15.489 2°41.036 -999 258 8 102050 94
2005-11-24 07:24 51°15.507 2°41.059 -999 259 8 102060 93
2005-11-24 07:25 51°15.526 2°41.084 -999 256 8 102050 93
2005-11-24 07:26 51°15.583 2°41.006 -999 341 8.1 102040 93
2005-11-24 07:27 51°15.587 2°40.729 -999 352 8.2 102020 92
2005-11-24 07:28 51°15.567 2°40.412 -999 5 8.3 102020 92
2005-11-24 07:29 51°15.549 2°40.092 -999 357 8.3 102000 91
2005-11-24 07:30 51°15.532 2°39.775 -999 355 8.3 102000 89
2005-11-24 07:31 51°15.508 2°39.458 -999 358 8.4 102000 89
2005-11-24 07:32 51°15.484 2°39.142 -999 3 8.4 101990 88
2005-11-24 07:33 51°15.458 2°38.825 -999 359 8.4 102000 88
2005-11-24 07:34 51°15.432 2°38.509 -999 354 8.5 101990 89
2005-11-24 07:35 51°15.404 2°38.195 -999 355 8.5 101990 88
2005-11-24 07:36 51°15.375 2°37.882 -999 359 8.5 101980 89
2005-11-24 07:37 51°15.345 2°37.571 -999 5 8.5 101980 89
2005-11-24 07:38 51°15.318 2°37.258 -999 7 8.5 101980 89
2005-11-24 07:39 51°15.291 2°36.944 -999 7 8.4 101980 88
2005-11-24 07:40 51°15.263 2°36.63 -999 9 8.5 101980 89
2005-11-24 07:41 51°15.236 2°36.316 -999 1 8.5 102020 88
2005-11-24 07:42 51°15.209 2°36.003 -999 358 8.4 101970 88
2005-11-24 07:43 51°15.182 2°35.692 -999 3 8.4 101960 88
2005-11-24 07:44 51°15.152 2°35.382 -999 3 8.4 101970 88
2005-11-24 07:45 51°15.122 2°35.073 -999 1 8.3 101970 89
2005-11-24 07:46 51°15.092 2°34.763 -999 5 8.2 101980 88
2005-11-24 07:47 51°15.06 2°34.452 -999 4 8.1 101980 88
2005-11-24 07:48 51°15.023 2°34.141 -999 3 8.1 101960 89
2005-11-24 07:49 51°14.976 2°33.83 -999 360 8 101970 88
2005-11-24 07:50 51°14.93 2°33.519 -999 7 7.9 101980 89
2005-11-24 07:51 51°14.895 2°33.239 -999 354 7.9 101970 90
2005-11-24 07:52 51°14.933 2°33.078 -999 325 7.9 101980 90
2005-11-24 07:53 51°14.99 2°33.025 -999 300 7.9 101960 91
2005-11-24 07:54 51°15.004 2°33.051 -999 265 7.8 101970 90
2005-11-24 07:55 51°15.016 2°33.081 -999 261 7.9 101980 91
2005-11-24 07:56 51°15.03 2°33.113 -999 250 7.7 102010 91
2005-11-24 07:57 51°15.045 2°33.148 -999 243 7.7 101970 92
2005-11-24 07:58 51°15.061 2°33.181 -999 252 7.7 101970 92
2005-11-24 07:59 51°15.078 2°33.214 -999 257 7.7 101970 93
2005-11-24 08:00 51°15.105 2°33.241 -999 278 7.6 101970 92
2005-11-24 08:01 51°15.147 2°33.219 -999 324 7.7 101950 93
2005-11-24 08:02 51°15.156 2°33.171 -999 18 7.6 101970 92
2005-11-24 08:03 51°15.106 2°33.133 -999 55 7.5 101950 92
2005-11-24 08:04 51°15.031 2°33.096 -999 48 7.4 101940 92
2005-11-24 08:05 51°14.97 2°33.051 -999 29 7.4 101960 93
2005-11-24 08:06 51°14.948 2°33.025 -999 21 7.5 101950 93
2005-11-24 08:07 51°14.939 2°33 -999 345 7.5 101950 93
2005-11-24 08:08 51°14.954 2°32.992 -999 290 7.4 101940 92
2005-11-24 08:09 51°14.964 2°33.023 -999 284 7.4 101960 93
2005-11-24 08:10 51°14.983 2°33.049 -999 273 7.4 101960 93
2005-11-24 08:11 51°15 2°33.08 -999 261 7.3 101960 94
2005-11-24 08:12 51°15.014 2°33.11 -999 281 7.3 101950 94
2005-11-24 08:13 51°15.029 2°33.14 -999 280 7.3 101950 95
2005-11-24 08:14 51°15.042 2°33.173 -999 261 7.5 101940 95
2005-11-24 08:15 51°15.057 2°33.207 -999 262 7.3 101930 95
2005-11-24 08:16 51°15.07 2°33.243 -999 258 7.2 101930 95
2005-11-24 08:17 51°15.084 2°33.277 -999 253 7.2 101930 95
2005-11-24 08:18 51°15.097 2°33.31 -999 260 7.2 101930 95
2005-11-24 08:19 51°15.111 2°33.342 -999 257 7.1 101930 95
2005-11-24 08:20 51°15.125 2°33.375 -999 251 7.1 101930 95
2005-11-24 08:21 51°15.141 2°33.407 -999 258 7.2 101930 95
2005-11-24 08:22 51°15.157 2°33.438 -999 278 7.2 101930 95
2005-11-24 08:23 51°15.173 2°33.471 -999 268 7.2 101920 95
2005-11-24 08:24 51°15.202 2°33.491 -999 299 7.1 101930 95
2005-11-24 08:25 51°15.238 2°33.447 -999 3 7.2 101920 96
2005-11-24 08:26 51°15.206 2°33.39 -999 48 7.1 101900 95
2005-11-24 08:27 51°15.142 2°33.318 -999 19 7.1 101900 96
2005-11-24 08:28 51°15.083 2°33.219 -999 26 7.2 101890 96
2005-11-24 08:29 51°15.02 2°33.123 -999 23 7.1 101900 96
2005-11-24 08:30 51°14.984 2°33.056 -999 19 7.1 101900 96
2005-11-24 08:31 51°14.963 2°33.028 -999 25 7 101880 96
2005-11-24 08:32 51°14.963 2°33.039 -999 35 7 101900 96
2005-11-24 08:33 51°14.976 2°33.075 -999 51 7.1 101890 95
2005-11-24 08:34 51°14.996 2°33.108 -999 85 7.1 101900 95
2005-11-24 08:35 51°15.014 2°33.135 -999 105 7.3 101900 95
2005-11-24 08:36 51°15.032 2°33.159 -999 117 7.2 101900 95
2005-11-24 08:37 51°15.046 2°33.179 -999 86 7.2 101890 94
2005-11-24 08:38 51°15.049 2°33.21 -999 96 7.1 101880 94
2005-11-24 08:39 51°15.048 2°33.237 -999 83 7.2 101880 95
2005-11-24 08:40 51°15.047 2°33.264 -999 74 7.4 101870 96
2005-11-24 08:41 51°15.05 2°33.292 -999 77 7.2 101860 95
2005-11-24 08:42 51°15.057 2°33.322 -999 91 7.2 101870 94
2005-11-24 08:43 51°15.066 2°33.349 -999 102 7.1 101870 94
2005-11-24 08:44 51°15.076 2°33.377 -999 106 7.3 101870 95
2005-11-24 08:45 51°15.062 2°33.411 -999 60 7.4 101860 95
2005-11-24 08:46 51°15.026 2°33.365 -999 350 7.5 101860 95
2005-11-24 08:47 51°15.012 2°33.253 -999 8 7.5 101850 94
2005-11-24 08:48 51°14.981 2°33.136 -999 27 7.7 101840 95
2005-11-24 08:49 51°14.952 2°33.08 -999 360 7.6 101840 93
2005-11-24 08:50 51°14.953 2°33.043 -999 351 7.6 101830 92
2005-11-24 08:51 51°14.955 2°33.025 -999 2 7.6 101840 92
2005-11-24 08:52 51°14.956 2°33.027 -999 10 7.6 101840 92
2005-11-24 08:53 51°14.958 2°33.004 -999 43 7.6 101810 92
2005-11-24 08:54 51°14.966 2°33.027 -999 282 7.6 101850 92
2005-11-24 08:55 51°14.978 2°33.047 -999 285 7.6 101870 93
2005-11-24 08:56 51°14.997 2°33.063 -999 287 7.6 101860 92
2005-11-24 08:57 51°15.019 2°33.07 -999 304 7.7 101850 91
2005-11-24 08:58 51°15.039 2°33.071 -999 230 7.8 101850 92
2005-11-24 08:59 51°15.033 2°33.014 -999 47 7.8 101820 91
2005-11-24 09:00 51°14.975 2°32.984 -999 44 7.8 101810 91
2005-11-24 09:01 51°14.912 2°32.953 -999 64 7.7 101800 90
2005-11-24 09:02 51°14.869 2°32.915 -999 17 7.8 101810 89
2005-11-24 09:03 51°14.856 2°32.879 -999 355 7.8 101810 89
2005-11-24 09:04 51°14.864 2°32.859 -999 317 7.9 101800 90
2005-11-24 09:05 51°14.88 2°32.873 -999 294 7.8 101790 90
2005-11-24 09:06 51°14.893 2°32.898 -999 270 7.8 101790 90
2005-11-24 09:07 51°14.904 2°32.924 -999 258 7.8 101800 90
2005-11-24 09:08 51°14.914 2°32.951 -999 251 7.7 101800 89
2005-11-24 09:09 51°14.929 2°32.973 -999 266 7.7 101800 89
2005-11-24 09:10 51°14.963 2°32.943 -999 320 7.7 101780 89
2005-11-24 09:11 51°14.974 2°32.876 -999 1 7.8 101790 90
2005-11-24 09:12 51°14.968 2°32.797 -999 6 7.7 101770 88
2005-11-24 09:13 51°14.946 2°32.764 -999 33 7.7 101750 88
2005-11-24 09:14 51°14.934 2°32.773 -999 63 7.8 101750 88
2005-11-24 09:15 51°14.931 2°32.796 -999 81 7.7 101780 89
2005-11-24 09:16 51°14.932 2°32.822 -999 91 7.9 101780 90
2005-11-24 09:17 51°14.935 2°32.85 -999 114 8 101790 90
2005-11-24 09:18 51°14.938 2°32.878 -999 109 8 101780 90
2005-11-24 09:19 51°14.94 2°32.904 -999 101 7.9 101790 89
2005-11-24 09:20 51°14.964 2°32.918 -999 124 7.8 101760 88
2005-11-24 09:21 51°14.99 2°32.919 -999 132 7.8 101760 87
2005-11-24 09:22 51°15.006 2°32.927 -999 138 7.8 101750 88
2005-11-24 09:23 51°15.017 2°32.948 -999 124 7.9 101750 88
2005-11-24 09:24 51°15.025 2°32.973 -999 122 7.8 101750 87
2005-11-24 09:25 51°15.029 2°32.998 -999 109 7.9 101750 87
2005-11-24 09:26 51°15.055 2°33.011 -999 117 7.8 101750 87
2005-11-24 09:27 51°15.073 2°33.022 -999 125 7.8 101740 87
2005-11-24 09:28 51°15.084 2°33.044 -999 135 7.8 101730 88
2005-11-24 09:29 51°15.089 2°33.07 -999 120 7.8 101740 88
2005-11-24 09:30 51°15.093 2°33.096 -999 105 7.7 101740 87
2005-11-24 09:31 51°15.098 2°33.122 -999 94 7.8 101740 86
2005-11-24 09:32 51°15.105 2°33.15 -999 92 7.8 101740 86
2005-11-24 09:33 51°15.113 2°33.178 -999 98 7.7 101730 84
2005-11-24 09:34 51°15.121 2°33.205 -999 104 7.7 101730 84
2005-11-24 09:35 51°15.126 2°33.235 -999 100 7.7 101720 85
2005-11-24 09:36 51°15.108 2°33.267 -999 76 7.7 101720 84
2005-11-24 09:37 51°15.076 2°33.277 -999 43 7.6 101720 82
2005-11-24 09:38 51°15.048 2°33.257 -999 4 7.7 101740 82
2005-11-24 09:39 51°15.04 2°33.239 -999 -999 7.7 101740 83
2005-11-24 09:40 51°15.048 2°33.234 -999 340 7.7 101730 84
2005-11-24 09:41 51°15.058 2°33.216 -999 344 7.7 101730 85
2005-11-24 09:42 51°15.072 2°33.217 -999 228 7.7 101720 86
2005-11-24 09:43 51°15.091 2°33.204 -999 334 7.7 101720 85
2005-11-24 09:44 51°15.105 2°33.191 -999 335 7.7 101720 86
2005-11-24 09:45 51°15.122 2°33.194 -999 330 7.6 101700 84
2005-11-24 09:46 51°15.135 2°33.169 -999 346 7.6 101710 84
2005-11-24 09:47 51°15.141 2°33.155 -999 13 7.6 101730 83
2005-11-24 09:48 51°15.144 2°33.163 -999 39 7.6 101720 82
2005-11-24 09:49 51°15.136 2°33.172 -999 36 7.6 101700 82
2005-11-24 09:50 51°15.123 2°33.171 -999 17 7.7 101710 84
2005-11-24 09:51 51°15.11 2°33.151 -999 8 7.7 101710 84
2005-11-24 09:52 51°15.105 2°33.143 -999 6 7.6 101720 85
2005-11-24 09:53 51°15.108 2°33.14 -999 344 7.6 101720 84
2005-11-24 09:54 51°15.109 2°33.103 -999 340 7.6 101720 84
2005-11-24 09:55 51°15.123 2°33.097 -999 281 7.6 101710 84
2005-11-24 09:56 51°15.139 2°33.114 -999 257 7.6 101680 85
2005-11-24 09:57 51°15.161 2°33.127 -999 268 7.7 101680 86
2005-11-24 09:58 51°15.186 2°33.133 -999 282 7.7 101670 86
2005-11-24 09:59 51°15.213 2°33.134 -999 280 7.7 101670 86
2005-11-24 10:00 51°15.237 2°33.137 -999 280 7.7 101670 86
2005-11-24 10:01 51°15.261 2°33.141 -999 282 7.6 101660 84
2005-11-24 10:02 51°15.282 2°33.149 -999 266 7.6 101650 85
2005-11-24 10:03 51°15.323 2°33.13 -999 298 7.5 101670 85
2005-11-24 10:04 51°15.345 2°33.046 -999 7 7.5 101660 85
2005-11-24 10:05 51°15.267 2°32.969 -999 32 7.5 101650 84
2005-11-24 10:06 51°15.152 2°32.869 -999 35 7.6 101660 86
2005-11-24 10:07 51°15.051 2°32.871 -999 61 7.5 101630 86
2005-11-24 10:08 51°15.009 2°32.9 -999 106 7.6 101630 88
2005-11-24 10:09 51°15 2°32.929 -999 95 7.5 101630 86
2005-11-24 10:10 51°14.992 2°32.957 -999 79 7.6 101630 87
2005-11-24 10:11 51°14.987 2°32.979 -999 85 7.5 101610 86
2005-11-24 10:12 51°14.988 2°33.002 -999 82 7.4 101610 86
2005-11-24 10:13 51°14.99 2°33.026 -999 87 7.5 101610 87
2005-11-24 10:14 51°14.995 2°33.049 -999 102 7.4 101600 85
2005-11-24 10:15 51°15.001 2°33.072 -999 104 7.4 101600 86
2005-11-24 10:16 51°15.008 2°33.095 -999 106 7.4 101610 85
2005-11-24 10:17 51°15.014 2°33.117 -999 100 7.4 101600 85
2005-11-24 10:18 51°15.02 2°33.144 -999 106 7.4 101600 86
2005-11-24 10:19 51°15.023 2°33.166 -999 90 7.3 101590 85
2005-11-24 10:20 51°15.028 2°33.189 -999 99 7.4 101580 87
2005-11-24 10:21 51°15.03 2°33.212 -999 96 7.4 101570 87
2005-11-24 10:22 51°15.033 2°33.237 -999 92 7.4 101570 86
2005-11-24 10:23 51°15.038 2°33.264 -999 102 7.4 101570 86
2005-11-24 10:24 51°15.044 2°33.288 -999 112 7.3 101570 85
2005-11-24 10:25 51°15.049 2°33.314 -999 108 7.3 101560 85
2005-11-24 10:26 51°15.056 2°33.341 -999 107 7.4 101560 86
2005-11-24 10:27 51°15.057 2°33.374 -999 124 7.4 101560 86
2005-11-24 10:28 51°15.061 2°33.457 -999 183 7.5 101570 87
2005-11-24 10:29 51°15.107 2°33.522 -999 241 7.5 101570 87
2005-11-24 10:30 51°15.164 2°33.472 -999 329 7.4 101570 86
2005-11-24 10:31 51°15.15 2°33.382 -999 19 7.4 101540 86
2005-11-24 10:32 51°15.101 2°33.277 -999 16 7.4 101520 85
2005-11-24 10:33 51°15.034 2°33.183 -999 5 7.4 101510 86
2005-11-24 10:34 51°14.976 2°33.073 -999 3 7.5 101520 87
2005-11-24 10:35 51°14.959 2°33.014 -999 355 7.5 101520 86
2005-11-24 10:36 51°14.969 2°33.029 -999 351 7.5 101530 86
2005-11-24 10:37 51°14.983 2°33.06 -999 320 7.4 101510 85
2005-11-24 10:38 51°14.99 2°33.098 -999 287 7.5 101500 86
2005-11-24 10:39 51°14.991 2°33.134 -999 274 7.5 101490 86
2005-11-24 10:40 51°14.99 2°33.163 -999 259 7.5 101510 87
2005-11-24 10:41 51°15.024 2°33.199 -999 190 7.6 101500 87
2005-11-24 10:42 51°15.024 2°33.399 -999 99 7.7 101530 86
2005-11-24 10:43 51°14.967 2°33.71 -999 109 7.7 101530 87
2005-11-24 10:44 51°14.931 2°34.047 -999 111 7.7 101530 88
2005-11-24 10:45 51°14.884 2°34.387 -999 109 7.6 101510 87
2005-11-24 10:46 51°14.84 2°34.72 -999 116 7.5 101490 86
2005-11-24 10:47 51°14.79 2°35.056 -999 110 7.5 101500 87
2005-11-24 10:48 51°14.763 2°35.385 -999 142 7.5 101500 86
2005-11-24 10:49 51°14.841 2°35.702 -999 173 7.5 101500 86
2005-11-24 10:50 51°14.929 2°36.015 -999 161 7.6 101500 87
2005-11-24 10:51 51°14.976 2°36.347 -999 136 7.6 101490 87
2005-11-24 10:52 51°14.961 2°36.687 -999 132 7.5 101480 86
2005-11-24 10:53 51°14.941 2°37.021 -999 108 7.5 101470 85
2005-11-24 10:54 51°14.916 2°37.359 -999 115 7.5 101460 85
2005-11-24 10:55 51°14.891 2°37.692 -999 121 7.5 101460 85
2005-11-24 10:56 51°14.861 2°38.029 -999 141 7.5 101460 85
2005-11-24 10:57 51°14.842 2°38.364 -999 140 7.5 101460 86
2005-11-24 10:58 51°14.82 2°38.7 -999 130 7.5 101450 85
2005-11-24 10:59 51°14.797 2°39.038 -999 114 7.6 101440 85
2005-11-24 11:00 51°14.767 2°39.378 -999 115 7.5 101440 83
2005-11-24 11:01 51°14.731 2°39.71 -999 112 7.5 101430 84
2005-11-24 11:02 51°14.701 2°40.038 -999 119 7.6 101430 85
2005-11-24 11:03 51°14.666 2°40.374 -999 116 7.6 101420 85
2005-11-24 11:04 51°14.633 2°40.705 -999 115 7.5 101400 84
2005-11-24 11:05 51°14.596 2°41.039 -999 113 7.5 101400 85
2005-11-24 11:06 51°14.562 2°41.369 -999 125 7.5 101400 85
2005-11-24 11:07 51°14.554 2°41.702 -999 132 7.5 101410 85
2005-11-24 11:08 51°14.543 2°42.041 -999 113 7.5 101400 84
2005-11-24 11:09 51°14.536 2°42.384 -999 132 7.5 101400 85
2005-11-24 11:10 51°14.526 2°42.726 -999 134 7.5 101390 84
2005-11-24 11:11 51°14.512 2°43.073 -999 135 7.5 101390 85
2005-11-24 11:12 51°14.511 2°43.415 -999 132 7.5 101390 85
2005-11-24 11:13 51°14.522 2°43.755 -999 138 7.4 101390 85
2005-11-24 11:14 51°14.527 2°44.093 -999 135 7.5 101390 85
2005-11-24 11:15 51°14.527 2°44.431 -999 132 7.5 101380 85
2005-11-24 11:16 51°14.542 2°44.77 -999 227 7.5 101380 85
2005-11-24 11:17 51°14.562 2°45.106 -999 144 7.5 101380 85
2005-11-24 11:18 51°14.579 2°45.441 -999 132 7.4 101380 85
2005-11-24 11:19 51°14.595 2°45.769 -999 45 7.4 101370 86
2005-11-24 11:20 51°14.605 2°46.103 -999 132 7.4 101350 86
2005-11-24 11:21 51°14.626 2°46.442 -999 136 7.4 101350 86
2005-11-24 11:22 51°14.647 2°46.784 -999 126 7.5 101350 87
2005-11-24 11:23 51°14.671 2°47.117 -999 124 7.5 101300 87
2005-11-24 11:24 51°14.693 2°47.453 -999 131 7.4 101300 86
2005-11-24 11:25 51°14.71 2°47.788 -999 131 7.4 101300 86
2005-11-24 11:26 51°14.718 2°48.122 -999 134 7.4 101290 86
2005-11-24 11:27 51°14.729 2°48.454 -999 131 7.4 101330 86
2005-11-24 11:28 51°14.742 2°48.793 -999 142 7.4 101300 86
2005-11-24 11:29 51°14.749 2°49.139 -999 137 7.4 101280 86
2005-11-24 11:30 51°14.754 2°49.48 -999 137 7.4 101270 86
2005-11-24 11:31 51°14.758 2°49.826 -999 132 7.4 101260 85
2005-11-24 11:32 51°14.767 2°50.166 -999 226 7.4 101260 85
2005-11-24 11:33 51°14.776 2°50.5 -999 135 7.3 101260 84
2005-11-24 11:34 51°14.781 2°50.837 -999 142 7.3 101250 84
2005-11-24 11:35 51°14.782 2°51.176 -999 139 7.4 101250 83
2005-11-24 11:36 51°14.789 2°51.512 -999 141 7.4 101250 83
2005-11-24 11:37 51°14.778 2°51.843 -999 135 7.4 101250 82
2005-11-24 11:38 51°14.773 2°52.177 -999 119 7.5 101240 84
2005-11-24 11:39 51°14.773 2°52.514 -999 112 7.5 101240 85
2005-11-24 11:40 51°14.769 2°52.847 -999 111 7.5 101240 87
2005-11-24 11:41 51°14.758 2°53.186 -999 103 7.4 101220 87
2005-11-24 11:42 51°14.747 2°53.529 -999 113 7.3 101220 88
2005-11-24 11:43 51°14.724 2°53.866 -999 100 7.2 101210 88
2005-11-24 11:44 51°14.659 2°54.182 -999 95 7.2 101200 88
2005-11-24 11:45 51°14.58 2°54.491 -999 85 7.2 101190 89
2005-11-24 11:46 51°14.477 2°54.768 -999 81 7.1 101200 89
2005-11-24 11:47 51°14.367 2°55.024 -999 73 7 101190 89
2005-11-24 11:48 51°14.265 2°55.24 -999 82 6.9 101230 89
2005-11-24 11:49 51°14.142 2°55.403 -999 25 6.7 101250 89
2005-11-24 11:50 51°14.02 2°55.494 -999 24 6.7 101240 89
2005-11-24 11:51 51°13.91 2°55.577 -999 30 6.7 101230 89
2005-11-24 11:52 51°13.804 2°55.661 -999 9 6.7 101230 89
2005-11-24 11:53 51°13.717 2°55.783 -999 79 6.6 101230 89
2005-11-24 11:54 51°13.657 2°55.902 -999 36 6.6 101230 89
2005-11-24 11:55 51°13.62 2°55.993 -999 64 6.6 101230 90
2005-11-24 11:56 51°13.595 2°56.072 -999 109 6.6 101240 90
2005-11-24 11:57 51°13.582 2°56.12 -999 143 6.5 101230 90
2005-11-24 11:58 51°13.577 2°56.13 -999 126 6.5 101230 90
2005-11-24 11:59 51°13.579 2°56.136 -999 138 6.5 101220 90
2005-11-24 12:00 51°13.579 2°56.136 -999 98 6.5 101220 90